Location: Unspecified
(34.4473°N, 0.0000°E)
Time: 13:36:04
(UTC+00:00)

Injun/Solrad 3 - Visible Passes

Search period start: 04 April 2026 00:00
Search period end: 14 April 2026 00:00
Orbit: 870 x 986 km, 66.8° (Epoch: 29 March)

Date Brightness Start Highest point End Pass type
(mag) Time Alt. Az. Time Alt. Az. Time Alt. Az.
4 Apr 10.3 01:42:00 15° N 01:42:00 15° N 01:43:13 10° N visible
5 Apr 10.3 01:52:33 14° N 01:52:33 14° N 01:53:42 10° N visible
6 Apr 10.4 02:03:03 12° NNW 02:03:03 12° NNW 02:03:46 10° NNW visible
7 Apr 10.6 00:29:56 11° NNE 00:29:56 11° NNE 00:30:14 10° NNE visible
8 Apr 10.5 00:40:23 13° N 00:40:23 13° N 00:41:01 10° N visible
9 Apr 10.5 00:50:46 13° N 00:50:46 13° N 00:51:36 10° N visible
10 Apr 10.5 01:01:08 12° NNW 01:01:08 12° NNW 01:01:51 10° N visible
10 Apr 10.6 23:27:52 11° NNE 23:27:52 11° NNE 23:27:58 10° NNE visible
11 Apr 10.5 23:38:08 13° N 23:38:08 13° N 23:38:49 10° NNE visible
12 Apr 10.4 23:48:19 15° N 23:48:19 15° N 23:49:28 10° N visible
13 Apr 10.4 23:58:26 14° NNW 23:58:26 14° NNW 23:59:51 10° N visible
